| time (UTC) | temp C | wind direction | speed KPH | gust KPH | rain 1hr cm | rain 24hr cm | rain mn cm | humidity % | barometer mb |
| 20260504190037 | 15 | 118 | 12.9 | 24.1 | 0.00 | 0.00 | 0.00 | 37 | 1009.2 |
| 20260504185534 | 15 | 103 | 12.9 | 24.1 | 0.00 | 0.00 | 0.00 | 36 | 1009.1 |
| 20260504185034 | 15 | 111 | 11.3 | 19.3 | 0.00 | 0.00 | 0.00 | 38 | 1009.3 |
| 20260504184534 | 15 | 214 | 9.7 | 19.3 | 0.00 | 0.00 | 0.00 | 38 | 1009.7 |
| 20260504184033 | 15 | 168 | 6.4 | 24.1 | 0.00 | 0.00 | 0.00 | 38 | 1009.6 |
| 20260504183536 | 14 | 87 | 6.4 | 24.1 | 0.00 | 0.00 | 0.00 | 37 | 1009.7 |
| 20260504183032 | 14 | 246 | 6.4 | 27.4 | 0.00 | 0.00 | 0.00 | 37 | 1009.6 |
| 20260504182532 | 14 | 87 | 9.7 | 27.4 | 0.00 | 0.00 | 0.00 | 37 | 1009.8 |
| 20260504182032 | 14 | 171 | 8.0 | 24.1 | 0.00 | 0.00 | 0.00 | 38 | 1009.7 |
| 20260504181532 | 15 | 112 | 12.9 | 24.1 | 0.00 | 0.00 | 0.00 | 37 | 1009.8 |
| 20260504181032 | 15 | 80 | 9.7 | 20.9 | 0.00 | 0.00 | 0.00 | 36 | 1010.1 |
| 20260504180532 | 15 | 109 | 11.3 | 22.5 | 0.00 | 0.00 | 0.00 | 38 | 1010.4 |
| 20260504180030 | 14 | 89 | 6.4 | 32.2 | 0.00 | 0.00 | 0.00 | 39 | 1010.6 |
| 20260504175528 | 14 | 99 | 17.7 | 32.2 | 0.00 | 0.00 | 0.00 | 38 | 1010.6 |
| 20260504175028 | 14 | 123 | 6.4 | 25.7 | 0.00 | 0.00 | 0.00 | 40 | 1010.5 |
| 20260504174527 | 13 | 106 | 11.3 | 25.7 | 0.00 | 0.00 | 0.00 | 39 | 1010.3 |
| 20260504174026 | 13 | 120 | 17.7 | 29.0 | 0.00 | 0.00 | 0.00 | 38 | 1010.2 |
| 20260504173527 | 13 | 112 | 11.3 | 30.6 | 0.00 | 0.00 | 0.00 | 38 | 1010.3 |
| 20260504173027 | 13 | 87 | 16.1 | 29.0 | 0.00 | 0.00 | 0.00 | 37 | 1010.3 |
| 20260504172526 | 13 | 103 | 9.7 | 29.0 | 0.00 | 0.00 | 0.00 | 38 | 1010.5 |
| 20260504172025 | 13 | 97 | 17.7 | 29.0 | 0.00 | 0.00 | 0.00 | 38 | 1010.5 |
| 20260504171536 | 13 | 45 | 17.7 | 30.6 | 0.00 | 0.00 | 0.00 | 37 | 1010.4 |
| 20260504171024 | 13 | 114 | 14.5 | 30.6 | 0.00 | 0.00 | 0.00 | 39 | 1010.3 |
| 20260504170523 | 13 | 112 | 17.7 | 30.6 | 0.00 | 0.00 | 0.00 | 38 | 1010.1 |
| 20260504151010 | 13 | 89 | 9.7 | 16.1 | 0.00 | 0.00 | 0.00 | 34 | 1010.0 |
| 20260504150503 | 13 | 93 | 1.6 | 9.7 | 0.00 | 0.00 | 0.00 | 35 | 1010.1 |
| 20260504141049 | 12 | 107 | 0.0 | 1.6 | 0.00 | 0.00 | 0.00 | 37 | 1009.6 |
| 20260504140550 | 11 | 108 | 0.0 | 3.2 | 0.00 | 0.00 | 0.00 | 37 | 1009.6 |
| 20260504130540 | 10 | 81 | 0.0 | 4.8 | 0.00 | 0.00 | 0.00 | 41 | 1009.2 |
| 20260504110521 | 11 | 228 | 19.3 | 29.0 | 0.00 | 0.00 | 0.00 | 33 | 1008.9 |
| 20260504100514 | 12 | 235 | 19.3 | 30.6 | 0.00 | 0.00 | 0.00 | 31 | 1009.4 |
| 20260504082008 | 12 | 245 | 16.1 | 22.5 | 0.00 | 0.00 | 0.00 | 32 | 1009.8 |
| 20260504081507 | 12 | 238 | 9.7 | 19.3 | 0.00 | 0.00 | 0.00 | 32 | 1009.8 |
| 20260504081003 | 12 | 236 | 11.3 | 24.1 | 0.00 | 0.00 | 0.00 | 31 | 1009.9 |
| 20260504080502 | 12 | 239 | 14.5 | 25.7 | 0.00 | 0.00 | 0.00 | 31 | 1009.9 |
| 20260504050542 | 12 | 226 | 9.7 | 19.3 | 0.00 | 0.00 | 0.00 | 35 | 1011.2 |
| 20260504045546 | 12 | 249 | 3.2 | 16.1 | 0.00 | 0.00 | 0.00 | 38 | 1011.4 |
| 20260504045041 | 12 | 246 | 4.8 | 17.7 | 0.00 | 0.00 | 0.00 | 37 | 1011.4 |
| 20260504044541 | 12 | 224 | 9.7 | 17.7 | 0.00 | 0.00 | 0.00 | 37 | 1011.5 |
| 20260504044042 | 12 | 222 | 6.4 | 12.9 | 0.00 | 0.00 | 0.00 | 36 | 1011.5 |
| 20260504043541 | 11 | 233 | 9.7 | 12.9 | 0.00 | 0.00 | 0.00 | 37 | 1011.5 |
| 20260504043048 | 11 | 195 | 1.6 | 8.0 | 0.00 | 0.00 | 0.00 | 39 | 1011.5 |
| 20260504042544 | 11 | 196 | 0.0 | 6.4 | 0.00 | 0.00 | 0.00 | 38 | 1011.5 |
| 20260504042142 | 11 | 174 | 0.0 | 4.8 | 0.00 | 0.00 | 0.00 | 42 | 1011.5 |
| 20260504041540 | 11 | 232 | 0.0 | 3.2 | 0.00 | 0.00 | 0.00 | 40 | 1011.6 |
| 20260504041040 | 11 | 232 | 0.0 | 9.7 | 0.00 | 0.00 | 0.00 | 41 | 1011.6 |
| 20260504040540 | 11 | 220 | 1.6 | 12.9 | 0.00 | 0.00 | 0.00 | 41 | 1011.5 |
| 20260504040041 | 11 | 210 | 8.0 | 12.9 | 0.00 | 0.00 | 0.00 | 41 | 1011.5 |
| 20260504035539 | 10 | 236 | 1.6 | 9.7 | 0.00 | 0.00 | 0.00 | 43 | 1011.5 |
| 20260504035039 | 11 | 254 | 3.2 | 12.9 | 0.00 | 0.00 | 0.00 | 43 | 1011.4 |
| 20260504034539 | 11 | 220 | 8.0 | 12.9 | 0.00 | 0.00 | 0.00 | 40 | 1011.4 |
| 20260504034039 | 11 | 216 | 8.0 | 12.9 | 0.00 | 0.00 | 0.00 | 40 | 1011.4 |
| 20260504033543 | 11 | 223 | 8.0 | 12.9 | 0.00 | 0.00 | 0.00 | 41 | 1011.4 |
| 20260504033041 | 11 | 208 | 9.7 | 14.5 | 0.00 | 0.00 | 0.00 | 40 | 1011.3 |
| 20260504032539 | 11 | 214 | 4.8 | 11.3 | 0.00 | 0.00 | 0.00 | 39 | 1011.3 |
| 20260504032039 | 12 | 212 | 4.8 | 11.3 | 0.00 | 0.00 | 0.00 | 39 | 1011.3 |
| 20260504031541 | 11 | 216 | 8.0 | 12.9 | 0.00 | 0.00 | 0.00 | 38 | 1011.2 |
| 20260504031040 | 12 | 234 | 0.0 | 8.0 | 0.00 | 0.00 | 0.00 | 40 | 1011.1 |
| 20260504030539 | 12 | 266 | 4.8 | 9.7 | 0.00 | 0.00 | 0.00 | 36 | 1011.2 |
| 20260504030040 | 12 | 278 | 3.2 | 9.7 | 0.00 | 0.00 | 0.00 | 37 | 1011.0 |
| 20260504025539 | 12 | 214 | 3.2 | 6.4 | 0.00 | 0.00 | 0.00 | 36 | 1011.0 |
| 20260504025039 | 12 | 225 | 3.2 | 6.4 | 0.00 | 0.00 | 0.00 | 37 | 1010.9 |
| 20260504024537 | 12 | 287 | 0.0 | 6.4 | 0.00 | 0.00 | 0.00 | 36 | 1010.8 |
| 20260504024037 | 12 | 287 | 0.0 | 6.4 | 0.00 | 0.00 | 0.00 | 35 | 1010.7 |
| 20260504023537 | 13 | 334 | 1.6 | 6.4 | 0.00 | 0.00 | 0.00 | 34 | 1010.7 |
| 20260504023038 | 13 | 338 | 0.0 | 4.8 | 0.00 | 0.00 | 0.00 | 32 | 1010.6 |
| 20260504022538 | 13 | 338 | 0.0 | 6.4 | 0.00 | 0.00 | 0.00 | 32 | 1010.4 |
| 20260504022036 | 14 | 354 | 3.2 | 6.4 | 0.00 | 0.00 | 0.00 | 31 | 1010.4 |
| 20260504021537 | 15 | 320 | 0.0 | 6.4 | 0.00 | 0.00 | 0.00 | 31 | 1010.4 |
| 20260504021039 | 15 | 273 | 3.2 | 8.0 | 0.00 | 0.00 | 0.00 | 27 | 1010.3 |
| 20260504020536 | 16 | 278 | 4.8 | 9.7 | 0.00 | 0.00 | 0.00 | 28 | 1010.2 |
| 20260504020037 | 17 | 295 | 4.8 | 9.7 | 0.00 | 0.00 | 0.00 | 26 | 1010.2 |
| 20260504015537 | 17 | 319 | 1.6 | 6.4 | 0.00 | 0.00 | 0.00 | 23 | 1010.2 |
| 20260504015037 | 18 | 324 | 1.6 | 9.7 | 0.00 | 0.00 | 0.00 | 22 | 1010.2 |
| 20260504014540 | 18 | 354 | 4.8 | 12.9 | 0.00 | 0.00 | 0.00 | 21 | 1010.2 |
| 20260504014036 | 18 | 349 | 4.8 | 12.9 | 0.00 | 0.00 | 0.00 | 21 | 1010.1 |
| 20260504013535 | 18 | 359 | 6.4 | 16.1 | 0.00 | 0.00 | 0.00 | 19 | 1010.1 |
| 20260504013047 | 19 | 31 | 8.0 | 19.3 | 0.00 | 0.00 | 0.00 | 18 | 1010.1 |
| 20260504012535 | 19 | 332 | 11.3 | 19.3 | 0.00 | 0.00 | 0.00 | 18 | 1010.1 |
| 20260504012036 | 20 | 347 | 9.7 | 19.3 | 0.00 | 0.00 | 0.00 | 19 | 1010.2 |
| 20260504011537 | 20 | 16 | 12.9 | 19.3 | 0.00 | 0.00 | 0.00 | 18 | 1010.1 |
| 20260504011034 | 20 | 4 | 9.7 | 17.7 | 0.00 | 0.00 | 0.00 | 18 | 1010.2 |
| 20260504010534 | 19 | 348 | 9.7 | 16.1 | 0.00 | 0.00 | 0.00 | 18 | 1010.3 |
| 20260504010039 | 20 | 8 | 4.8 | 16.1 | 0.00 | 0.00 | 0.00 | 18 | 1010.3 |
| 20260504005534 | 20 | 296 | 1.6 | 16.1 | 0.00 | 0.00 | 0.00 | 19 | 1010.3 |
| 20260504005034 | 19 | 338 | 6.4 | 19.3 | 0.00 | 0.00 | 0.00 | 18 | 1010.3 |
| 20260504004533 | 20 | 11 | 11.3 | 19.3 | 0.00 | 0.00 | 0.00 | 17 | 1010.3 |
| 20260504004034 | 20 | 344 | 11.3 | 22.5 | 0.00 | 0.00 | 0.00 | 18 | 1010.3 |
| 20260504003534 | 20 | 10 | 16.1 | 22.5 | 0.00 | 0.00 | 0.00 | 17 | 1010.3 |
| 20260504003036 | 20 | 67 | 11.3 | 22.5 | 0.00 | 0.00 | 0.00 | 17 | 1010.1 |
| 20260504002532 | 20 | 50 | 8.0 | 24.1 | 0.00 | 0.00 | 0.00 | 17 | 1010.2 |
| 20260504002032 | 20 | 18 | 14.5 | 24.1 | 0.00 | 0.00 | 0.00 | 16 | 1010.3 |
| 20260504001537 | 20 | 75 | 12.9 | 19.3 | 0.00 | 0.00 | 0.00 | 16 | 1010.4 |
| 20260504001031 | 20 | 60 | 9.7 | 17.7 | 0.00 | 0.00 | 0.00 | 16 | 1010.4 |
| 20260504000531 | 21 | 17 | 8.0 | 17.7 | 0.00 | 0.00 | 0.00 | 16 | 1010.4 |
| 20260504000031 | 21 | 24 | 9.7 | 17.7 | 0.00 | 0.00 | 0.00 | 16 | 1010.4 |
| 20260503235530 | 21 | 11 | 11.3 | 24.1 | 0.00 | 0.00 | 0.00 | 16 | 1010.5 |
| 20260503235029 | 21 | 4 | 16.1 | 24.1 | 0.00 | 0.00 | 0.00 | 16 | 1010.5 |
| 20260503234529 | 21 | 287 | 14.5 | 24.1 | 0.00 | 0.00 | 0.00 | 16 | 1010.5 |
| 20260503234028 | 21 | 291 | 9.7 | 30.6 | 0.00 | 0.00 | 0.00 | 15 | 1010.5 |
| 20260503233529 | 21 | 302 | 19.3 | 30.6 | 0.00 | 0.00 | 0.00 | 15 | 1010.4 |
| 20260503233029 | 21 | 245 | 8.0 | 29.0 | 0.00 | 0.00 | 0.00 | 16 | 1010.5 |
| 20260503232529 | 21 | 297 | 19.3 | 29.0 | 0.00 | 0.00 | 0.00 | 15 | 1010.5 |
| 20260503232028 | 21 | 208 | 9.7 | 24.1 | 0.00 | 0.00 | 0.00 | 15 | 1010.6 |
| 20260503231527 | 21 | 301 | 12.9 | 24.1 | 0.00 | 0.00 | 0.00 | 15 | 1010.6 |
| 20260503231026 | 21 | 287 | 9.7 | 24.1 | 0.00 | 0.00 | 0.00 | 15 | 1010.6 |
| 20260503230528 | 21 | 359 | 11.3 | 29.0 | 0.00 | 0.00 | 0.00 | 14 | 1010.6 |
| 20260503230026 | 21 | 359 | 9.7 | 29.0 | 0.00 | 0.00 | 0.00 | 14 | 1010.6 |
| 20260503225525 | 20 | 4 | 11.3 | 22.5 | 0.00 | 0.00 | 0.00 | 15 | 1010.7 |
| 20260503225026 | 21 | 25 | 9.7 | 29.0 | 0.00 | 0.00 | 0.00 | 16 | 1010.7 |
| 20260503224524 | 21 | 251 | 19.3 | 29.0 | 0.00 | 0.00 | 0.00 | 15 | 1010.9 |
| 20260503224024 | 20 | 240 | 14.5 | 27.4 | 0.00 | 0.00 | 0.00 | 16 | 1010.9 |
| 20260503223524 | 20 | 318 | 11.3 | 32.2 | 0.00 | 0.00 | 0.00 | 15 | 1010.9 |
| 20260503223023 | 21 | 266 | 16.1 | 32.2 | 0.00 | 0.00 | 0.00 | 15 | 1010.8 |
| 20260503222521 | 21 | 320 | 9.7 | 30.6 | 0.00 | 0.00 | 0.00 | 13 | 1010.9 |
| 20260503222021 | 20 | 289 | 17.7 | 30.6 | 0.00 | 0.00 | 0.00 | 14 | 1011.1 |
| 20260503221523 | 20 | 318 | 22.5 | 30.6 | 0.00 | 0.00 | 0.00 | 14 | 1011.1 |
| 20260503221020 | 20 | 286 | 11.3 | 30.6 | 0.00 | 0.00 | 0.00 | 14 | 1011.1 |
| 20260503220519 | 20 | 272 | 17.7 | 30.6 | 0.00 | 0.00 | 0.00 | 16 | 1011.2 |
| 20260503220025 | 20 | 281 | 20.9 | 30.6 | 0.00 | 0.00 | 0.00 | 15 | 1011.3 |
| 20260503215518 | 20 | 311 | 22.5 | 30.6 | 0.00 | 0.00 | 0.00 | 15 | 1011.4 |
| 20260503215016 | 19 | 271 | 12.9 | 17.7 | 0.00 | 0.00 | 0.00 | 16 | 1011.5 |
| 20260503214521 | 19 | 294 | 8.0 | 20.9 | 0.00 | 0.00 | 0.00 | 17 | 1011.6 |
| 20260503214015 | 19 | 321 | 9.7 | 24.1 | 0.00 | 0.00 | 0.00 | 16 | 1011.7 |
| 20260503213515 | 19 | 316 | 16.1 | 24.1 | 0.00 | 0.00 | 0.00 | 16 | 1011.8 |
| 20260503213014 | 20 | 295 | 14.5 | 20.9 | 0.00 | 0.00 | 0.00 | 15 | 1011.8 |
| 20260503212514 | 19 | 241 | 4.8 | 14.5 | 0.00 | 0.00 | 0.00 | 19 | 1011.8 |
| 20260503212013 | 19 | 225 | 6.4 | 14.5 | 0.00 | 0.00 | 0.00 | 20 | 1011.8 |
| 20260503211512 | 20 | 219 | 4.8 | 9.7 | 0.00 | 0.00 | 0.00 | 22 | 1011.8 |
| 20260503211011 | 20 | 168 | 4.8 | 9.7 | 0.00 | 0.00 | 0.00 | 23 | 1011.9 |
| 20260503210510 | 20 | 131 | 1.6 | 16.1 | 0.00 | 0.00 | 0.00 | 22 | 1012.1 |
| 20260503210012 | 19 | 105 | 6.4 | 16.1 | 0.00 | 0.00 | 0.00 | 24 | 1012.2 |
| 20260503205509 | 19 | 97 | 8.0 | 14.5 | 0.00 | 0.00 | 0.00 | 23 | 1012.2 |
| 20260503205009 | 20 | 92 | 4.8 | 17.7 | 0.00 | 0.00 | 0.00 | 24 | 1012.3 |
| 20260503204516 | 20 | 116 | 9.7 | 24.1 | 0.00 | 0.00 | 0.00 | 24 | 1012.4 |
| 20260503204007 | 20 | 103 | 11.3 | 24.1 | 0.00 | 0.00 | 0.00 | 24 | 1012.4 |
| 20260503203506 | 20 | 111 | 11.3 | 17.7 | 0.00 | 0.00 | 0.00 | 23 | 1012.5 |
| 20260503203006 | 20 | 183 | 6.4 | 17.7 | 0.00 | 0.00 | 0.00 | 25 | 1012.7 |
| 20260503202505 | 20 | 97 | 1.6 | 9.7 | 0.00 | 0.00 | 0.00 | 25 | 1012.6 |
| 20260503202004 | 19 | 167 | 3.2 | 9.7 | 0.00 | 0.00 | 0.00 | 24 | 1012.7 |
| 20260503201509 | 19 | 297 | 3.2 | 16.1 | 0.00 | 0.00 | 0.00 | 25 | 1012.7 |
| 20260503201003 | 19 | 306 | 3.2 | 16.1 | 0.00 | 0.00 | 0.00 | 25 | 1012.7 |
| 20260503200502 | 19 | 29 | 3.2 | 22.5 | 0.00 | 0.00 | 0.00 | 25 | 1012.9 |
| 20260503200005 | 19 | 129 | 6.4 | 22.5 | 0.00 | 0.00 | 0.00 | 24 | 1013.1 |
| 20260503195601 | 20 | 127 | 6.4 | 19.3 | 0.00 | 0.00 | 0.00 | 25 | 1013.1 |
| 20260503195100 | 19 | 177 | 6.4 | 19.3 | 0.00 | 0.00 | 0.00 | 25 | 1013.2 |
| 20260503194602 | 18 | 144 | 4.8 | 22.5 | 0.00 | 0.00 | 0.00 | 26 | 1013.1 |
| 20260503194057 | 18 | 91 | 16.1 | 24.1 | 0.00 | 0.00 | 0.00 | 26 | 1013.2 |
| 20260503193555 | 18 | 96 | 9.7 | 24.1 | 0.00 | 0.00 | 0.00 | 26 | 1013.3 |
| 20260503193056 | 18 | 87 | 11.3 | 22.5 | 0.00 | 0.00 | 0.00 | 28 | 1013.3 |
| 20260503192555 | 18 | 24 | 3.2 | 12.9 | 0.00 | 0.00 | 0.00 | 24 | 1013.4 |
| 20260503192054 | 18 | 80 | 3.2 | 16.1 | 0.00 | 0.00 | 0.00 | 25 | 1013.5 |
| 20260503191553 | 18 | 126 | 11.3 | 16.1 | 0.00 | 0.00 | 0.00 | 25 | 1013.6 |
| 20260503191052 | 18 | 147 | 3.2 | 19.3 | 0.00 | 0.00 | 0.00 | 26 | 1013.7 |
| 20260503190551 | 18 | 107 | 11.3 | 19.3 | 0.00 | 0.00 | 0.00 | 27 | 1013.9 |